カタログに戻る

STARLINK-5988

運用中通信SSO
NORAD 56320·PAYLOAD·🇺🇸 United States

打ち上げ Apr 27, 2023 から Vandenberg Space Force Base

Loading…

次のパス (今後24時間)

TLE

最新Source: CelesTrak SupGP

元期: Sep 14, 2026, 14:17 UTC

1 56320C 23058D   26257.59562500  .00554650  00000+0  32628-1 0  2571
2 56320  97.2855 251.7052 0001662  90.4199  75.5408 15.11462173    14

AllMySatでSTARLINK-5988をリアルタイム追跡

Download on the App Store